Change the Weather History Date:

Wednesday, November 13, 2013

  Actual Average Record
Temperature  
Mean Temperature 34 °F 47 °F  
Max Temperature 41 °F 56 °F 73 °F (1912)
Min Temperature 27 °F 38 °F 20 °F (1986)
Degree Days  
Heating Degree Days 31 18  
Month to date heating degree days 240 216  
Since 1 July heating degree days 586 613  
Cooling Degree Days 0 0  
Month to date cooling degree days 0 0  
Year to date cooling degree days 1077 965  
Moisture  
Dew Point 13 °F    
Average Humidity 43    
Maximum Humidity 58    
Minimum Humidity 27    
Precipitation  
Precipitation 0.00 in 0.09 in 1.58 in (1937)
Month to date precipitation 0.43 1.36  
Year to date precipitation 36.04 40.79  
Snow  
Snow 0.00 in - - ()
Month to date snowfall 0.0  
Snow Depth 0.00 in    
Sea Level Pressure  
Sea Level Pressure 30.34 in    
Wind  
Wind Speed 10 mph (NW)    
Max Wind Speed 22 mph    
Max Gust Speed 31 mph    
Visibility 10 miles    
Events      
T = Trace of Precipitation, MM = Missing Value Source: NWS Daily Summary

Daily Weather History Graph

Daily Weather History Graph

Search for Another Location

Airport or City:

Trip Planner

Search our weather history database for the weather conditions in past years. The results will help you decide how hot, cold, wet, or windy it might be!

Date:

Astronomy

Nov. 13, 2013 Rise Set
Actual Time 6:42 AM EST 4:43 PM EST
Civil Twilight 6:13 AM EST 5:12 PM EST
Nautical Twilight 5:41 AM EST 5:45 PM EST
Astronomical Twilight 5:09 AM EST 6:17 PM EST
Moon 2:30 PM EST (11/13) 2:33 AM EST (11/13)
Length of Visible Light 10h 58m
Length of Day
10h 00m
Waxing Gibbous, 84% of the Moon is Illuminated
Nov 13
Waxing Gibbous
Nov 17
Full
Nov 25
Last Quarter
Dec 2
New
Dec 9
First Quarter

Hourly Weather History & Observations

Time (EST) Temp. Windchill Dew Point Humidity Pressure Visibility Wind Dir Wind Speed Gust Speed Precip Events Conditions
12:53 AM 28.0 °F 18.1 °F 14.0 °F 56% 30.31 in 10.0 mi NW 11.5 mph - N/A   Clear
1:53 AM 28.0 °F 17.5 °F 12.9 °F 53% 30.31 in 10.0 mi NW 12.7 mph - N/A   Clear
2:53 AM 28.0 °F 17.5 °F 12.0 °F 51% 30.31 in 10.0 mi NW 12.7 mph 19.6 mph N/A   Clear
3:53 AM 28.0 °F 17.0 °F 12.0 °F 51% 30.32 in 10.0 mi NW 13.8 mph 18.4 mph N/A   Clear
4:53 AM 27.0 °F 16.7 °F 12.0 °F 53% 30.32 in 10.0 mi NW 11.5 mph - N/A   Clear
5:53 AM 27.0 °F 18.0 °F 12.0 °F 53% 30.33 in 10.0 mi NNW 9.2 mph - N/A   Clear
6:53 AM 27.0 °F 16.7 °F 12.0 °F 53% 30.35 in 10.0 mi NW 11.5 mph 17.3 mph N/A   Clear
7:53 AM 28.9 °F 18.6 °F 12.9 °F 51% 30.37 in 10.0 mi NNW 12.7 mph 21.9 mph N/A   Clear
8:53 AM 30.9 °F 19.4 °F 12.9 °F 47% 30.39 in 10.0 mi North 17.3 mph 25.3 mph N/A   Clear
9:53 AM 33.1 °F 23.9 °F 12.0 °F 42% 30.39 in 10.0 mi North 12.7 mph 21.9 mph N/A   Clear
10:53 AM 35.1 °F 25.9 °F 10.0 °F 35% 30.38 in 10.0 mi North 13.8 mph 21.9 mph N/A   Clear
11:53 AM 37.0 °F 27.7 °F 8.1 °F 30% 30.35 in 10.0 mi NNW 16.1 mph 25.3 mph N/A   Clear
12:53 PM 39.0 °F 31.0 °F 9.0 °F 29% 30.33 in 10.0 mi NNW 13.8 mph 24.2 mph N/A   Clear
1:53 PM 39.9 °F 32.5 °F 10.0 °F 29% 30.33 in 10.0 mi NNW 12.7 mph 23.0 mph N/A   Clear
2:53 PM 39.9 °F 32.1 °F 12.0 °F 32% 30.33 in 10.0 mi NW 13.8 mph 20.7 mph N/A   Clear
3:53 PM 39.0 °F 32.3 °F 12.9 °F 34% 30.33 in 10.0 mi NW 10.4 mph 19.6 mph N/A   Clear
4:53 PM 37.0 °F 31.6 °F 14.0 °F 39% 30.33 in 10.0 mi Variable 6.9 mph - N/A   Clear
5:53 PM 35.1 °F 31.0 °F 15.1 °F 44% 30.35 in 10.0 mi WNW 4.6 mph - N/A   Clear
6:53 PM 34.0 °F 29.8 °F 15.1 °F 46% 30.35 in 10.0 mi WSW 4.6 mph - N/A   Clear
7:53 PM 33.1 °F 30.0 °F 16.0 °F 50% 30.35 in 10.0 mi WSW 3.5 mph - N/A   Clear
8:53 PM 30.0 °F 26.5 °F 16.0 °F 56% 30.35 in 10.0 mi WSW 3.5 mph - N/A   Clear
9:53 PM 30.9 °F 27.5 °F 17.1 °F 57% 30.34 in 10.0 mi WSW 3.5 mph - N/A   Clear
10:53 PM 30.9 °F 26.2 °F 18.0 °F 59% 30.32 in 10.0 mi West 4.6 mph - N/A   Clear
11:53 PM 30.0 °F 25.2 °F 18.0 °F 61% 30.30 in 10.0 mi WSW 4.6 mph - N/A   Clear